Temperature
18 18 18 18 18 18 18 17 17 17 17 17 17 16 16 16 16 16 16 15 15 15 15 15 15 15 15 15 15 15 14 14 14 15 15 15 15 15 15 14 14 14 13
18 18 18 18 18 18 18 18 18 17 17 17 17 17 16 16 16 16 16 16 16 16 16 15 15 15 16 16 15 15 15 14 14 15 15 15 14 14 14 14 14 13 13
19 18 18 18 18 18 18 18 18 18 18 17 17 17 17 17 16 17 17 17 16 16 16 16 16 16 16 16 16 16 15 15 15 14 15 14 14 14 14 14 14 14 13
19 19 18 18 18 18 18 18 18 18 18 18 17 17 17 17 17 17 17 17 17 17 16 16 16 16 16 16 16 16 15 15 15 14 14 14 14 14 14 14 14 14 13
20 19 19 19 18 18 18 18 18 18 18 18 17 17 17 17 17 17 17 17 17 17 16 16 16 16 16 15 15 15 15 14 14 14 14 14 14 14 14 14 14 14 14
20 19 19 18 18 18 18 17 17 17 17 17 17 17 17 17 17 17 17 16 16 16 16 16 16 16 16 15 15 15 15 14 14 14 14 14 14 14 14 14 14 14 14
19 19 19 18 18 17 17 17 17 17 17 17 16 16 16 16 16 16 16 16 16 16 15 15 15 15 15 15 15 15 15 15 14 14 14 14 14 14 14 14 14 13 13
19 18 18 18 17 17 17 17 16 16 16 16 16 16 16 16 15 15 15 15 15 15 15 14 14 14 14 14 14 14 14 14 14 14 14 14 15 15 14 14 13 13 13
17 16 17 17 17 16 16 16 16 16 15 15 15 15 15 15 15 14 14 14 14 14 14 13 13 13 13 13 13 13 13 13 13 13 13 13 14 14 13 13 12 12 12
15 15 15 15 15 15 15 15 15 15 15 14 14 14 14 14 14 14 13 13 13 12 12 12 12 12 12 12 12 12 12 13 13 13 13 13 13 13 13 12 12 11 11
14 14 14 14 14 14 14 14 14 14 14 14 13 13 13 13 13 13 12 12 12 11 11 11 11 11 11 12 12 12 12 12 12 12 12 12 12 12 12 12 12 12 11
13 13 13 13 13 13 13 12 12 13 13 13 13 13 13 12 12 12 11 11 11 10 10 10 10 10 10 11 11 11 11 11 11 11 11 11 11 11 12 12 12 12 12
12 12 12 12 12 12 12 12 12 12 12 12 12 12 11 11 11 10 10 10 9 9 9 9 9 9 9 10 10 10 10 10 10 10 10 10 10 11 11 11 11 11 12
11 11 11 11 11 12 12 11 11 11 11 11 10 10 10 10 10 9 9 9 9 8 8 8 9 9 9 9 9 9 10 10 10 10 10 10 10 10 10 11 11 11 11
11 11 11 11 11 11 11 11 11 11 10 10 10 9 9 9 8 8 8 7 7 7 7 7 7 7 7 8 8 9 9 9 9 9 10 10 10 10 10 10 10 11 11
10 10 10 11 11 11 11 11 11 11 10 10 10 9 9 8 8 7 7 7 6 6 6 6 6 6 6 7 7 8 8 8 8 9 9 9 9 9 9 10 10 10 10
10 10 10 10 10 10 10 10 10 10 10 10 9 9 8 7 7 7 6 6 6 6 6 6 6 6 6 6 6 6 6 7 7 7 8 8 8 9 9 9 9 9 9
10 10 10 10 10 10 10 10 10 9 9 9 8 8 7 6 6 6 5 5 5 5 5 5 5 5 5 5 5 5 5 5 6 6 7 7 7 7 8 8 9 9 9
9 9 9 9 9 9 9 9 9 8 8 8 7 7 6 5 5 5 5 4 4 4 4 4 4 4 4 4 4 4 4 4 5 5 5 6 6 7 7 7 8 8 8
9 9 9 9 9 9 8 8 8 7 7 6 6 5 4 4 4 4 4 3 3 3 3 3 3 3 3 3 3 3 3 4 4 4 5 5 6 6 6 7 7 7 8
8 8 8 8 8 7 7 6 6 6 5 5 4 4 3 3 3 3 3 3 2 2 2 2 2 2 2 2 2 3 3 3 3 4 4 5 5 5 6 6 7 7 7
8 8 7 7 7 6 5 5 5 4 4 3 3 2 2 2 2 2 2 2 2 2 1 1 1 2 2 2 2 2 2 3 3 3 4 4 4 5 5 6 6 6 7
7 7 6 6 5 5 4 4 3 3 2 2 2 1 1 1 1 1 1 1 1 1 1 1 1 1 1 1 2 2 2 2 3 3 3 4 4 4 5 5 6 6 6
6 6 5 5 4 4 3 3 2 2 1 1 1 1 1 0 0 0 0 0 0 1 1 1 1 1 1 1 1 1 2 2 2 3 3 3 4 4 5 5 5 6 6
5 4 4 3 3 3 2 2 2 1 1 1 0 0 0 0 -0 -0 -0 -0 -0 0 0 0 0 0 0 1 1 1 2 2 2 3 3 3 4 4 4 5 5 5 5
4 3 3 3 2 2 2 1 1 1 1 0 0 -0 -0 -0 -0 -1 -1 -1 -1 -0 -0 -0 -0 -0 0 0 1 1 2 2 3 3 3 3 4 4 4 4 5 5 5
Wind_Speed
11 10 9 10 10 9 8 7 6 6 6 6 7 7 8 8 8 7 7 6 7 7 6 6 6 6 5 4 3 3 4 4 5 5 4 3 2 3 4 7 9 11 13
11 11 10 9 10 10 10 9 8 7 7 7 8 8 8 9 8 8 9 9 8 8 8 8 7 7 8 6 5 5 5 5 5 6 5 4 5 6 6 6 9 13 14
13 12 11 10 10 9 9 9 9 9 8 8 9 9 9 9 9 9 9 9 9 9 9 9 9 9 8 7 7 7 6 7 6 6 7 6 6 6 6 7 8 7 13
12 11 11 10 10 9 9 8 9 9 9 9 9 9 9 9 9 9 10 10 10 10 9 9 9 10 10 9 9 8 8 7 7 7 7 6 6 7 6 6 6 6 8
9 9 9 9 9 8 8 8 8 9 11 9 9 9 9 9 10 10 10 11 10 10 10 10 11 12 14 12 11 9 9 9 8 8 8 8 8 6 6 6 7 7 7
6 6 6 6 5 6 6 6 7 7 8 8 8 9 9 11 12 13 11 9 9 9 10 10 11 13 15 17 18 16 13 11 10 9 9 9 8 8 6 6 6 6 6
4 3 3 3 2 1 2 2 3 4 5 6 6 6 7 7 7 6 8 6 7 8 8 8 11 14 12 11 14 18 19 20 18 13 13 13 10 8 7 8 7 8 8
7 5 5 5 5 4 3 3 2 2 2 3 4 4 5 5 3 4 5 6 8 8 9 9 10 11 14 12 11 12 13 15 17 17 16 17 16 11 10 9 9 9 8
12 10 10 8 7 6 5 4 3 3 3 3 4 4 4 3 2 0 2 4 6 8 9 10 10 10 12 13 12 13 13 12 16 20 20 20 23 22 15 9 9 9 12
11 10 9 9 8 7 6 5 4 4 4 4 4 4 4 2 1 2 2 3 5 6 7 8 10 8 9 9 8 11 13 13 13 14 13 16 17 18 20 16 13 13 12
10 10 9 7 6 6 6 5 4 4 4 4 4 5 4 1 1 2 2 1 4 6 7 7 7 8 9 11 10 10 14 14 12 12 12 12 11 12 14 15 15 15 16
8 7 6 6 6 6 5 4 4 4 4 4 3 4 3 2 4 4 2 2 6 7 8 8 8 14 16 16 14 15 18 16 12 12 13 12 12 12 12 14 15 15 16
6 5 4 4 3 3 4 4 4 3 4 5 6 6 6 5 5 7 6 7 8 6 8 12 15 18 18 16 18 19 16 12 12 13 14 13 12 12 12 11 13 15 17
5 4 3 2 2 2 3 4 4 4 4 5 5 6 6 5 5 6 7 8 10 10 10 13 17 19 17 17 17 15 12 12 12 13 13 12 11 11 11 11 11 11 13
6 5 5 4 3 2 3 3 2 1 1 2 3 4 5 5 4 5 6 8 9 10 11 12 12 12 11 10 10 9 9 9 10 10 12 12 12 11 12 11 10 11 12
6 7 7 6 4 4 4 4 3 4 5 8 6 4 2 3 6 8 10 12 14 14 10 11 12 11 12 12 12 11 10 10 10 10 10 10 11 12 12 11 11 11 12
6 6 6 7 7 7 6 6 5 4 4 5 6 5 6 7 9 11 13 14 16 13 9 10 10 10 11 11 11 12 12 11 11 11 11 11 11 11 11 11 11 11 12
6 6 5 5 6 7 7 7 7 7 6 4 2 4 5 8 11 13 13 12 11 10 9 9 9 10 10 11 11 12 12 12 12 12 13 12 12 12 12 12 11 11 11
7 6 5 7 8 8 7 7 8 8 8 7 6 5 5 9 11 11 10 8 10 11 10 10 10 11 11 12 12 12 12 13 13 13 13 13 12 11 12 11 11 13 12
6 5 6 7 8 7 7 8 8 9 9 8 9 9 10 11 10 10 8 8 9 10 10 11 11 11 11 11 11 12 12 12 13 12 12 12 11 11 12 12 11 10 9
8 7 6 7 6 7 8 8 8 8 9 9 9 9 11 11 11 10 10 9 9 10 11 11 11 11 11 10 11 12 14 12 12 12 12 12 12 11 10 10 10 9 8
8 8 7 7 7 7 7 8 8 8 9 10 10 10 12 10 10 10 10 10 10 9 10 10 11 10 10 10 11 12 12 12 12 12 12 13 12 11 10 9 9 8 8
7 7 7 7 7 7 7 8 8 8 9 9 10 10 10 10 10 10 11 11 10 11 10 10 11 11 10 10 10 9 11 11 11 12 13 13 12 11 10 10 11 10 8
6 7 7 7 7 7 8 8 8 8 9 9 9 9 9 9 10 11 11 11 11 11 11 11 11 14 16 12 10 11 10 11 13 11 14 13 13 12 11 10 10 10 8
6 7 7 7 7 7 7 7 7 8 8 8 9 9 9 10 10 10 10 10 12 12 13 13 11 12 15 17 15 14 15 16 15 13 11 11 12 13 12 11 10 10 9
7 7 7 6 6 6 6 7 7 8 8 8 8 8 9 10 10 11 11 11 12 12 12 11 14 17 17 15 17 19 17 16 16 15 12 10 11 11 11 10 12 10 10
Wind_Direction
193 196 205 196 204 209 216 219 211 202 192 181 185 192 198 201 198 203 230 235 214 220 233 232 225 242 273 295 276 244 238 242 258 273 276 276 200 217 200 226 253 250 237
194 196 205 203 200 205 210 210 208 205 202 197 198 204 209 209 204 204 217 233 229 224 229 234 231 230 222 237 260 270 259 248 248 266 274 276 257 226 217 221 245 259 258
195 197 200 204 206 209 211 205 203 203 206 206 203 209 214 216 209 210 215 226 233 233 230 230 232 234 234 230 229 241 250 253 232 240 251 245 244 235 228 230 237 243 258
192 195 199 202 206 208 211 208 206 204 206 212 212 212 214 219 220 218 218 222 229 235 236 235 234 231 232 232 238 237 243 254 258 254 254 250 245 235 219 221 239 235 244
182 191 199 203 204 206 211 211 209 209 214 212 216 218 219 222 226 222 223 228 227 233 236 237 241 240 237 236 240 236 233 236 242 245 247 247 244 235 226 219 233 237 237
172 180 183 190 195 204 210 214 214 214 220 216 219 224 226 234 235 226 223 237 237 237 240 242 247 248 246 240 239 241 241 243 246 248 251 249 246 239 235 234 237 242 252
104 98 105 122 127 200 222 209 225 231 234 236 237 238 243 252 267 245 230 244 257 260 261 260 263 263 260 249 242 239 242 242 240 245 256 258 260 258 253 248 244 245 249
73 68 71 77 73 62 54 51 43 18 317 287 279 273 270 270 272 244 241 249 265 269 269 268 267 269 272 273 270 260 248 244 241 242 246 252 255 258 258 257 256 259 254
58 51 48 49 58 56 48 37 32 16 342 315 302 297 292 305 9 137 235 275 273 276 276 276 276 275 279 283 279 274 270 262 252 243 234 237 239 243 245 254 252 252 256
56 50 45 46 46 43 40 34 21 4 343 328 324 317 307 307 71 139 190 289 295 298 298 294 289 299 313 318 298 287 279 273 273 272 258 248 246 246 238 236 243 248 253
57 53 44 39 51 47 30 16 358 349 338 315 305 301 296 292 101 140 167 309 317 314 310 307 305 332 331 319 304 287 279 283 283 274 270 263 251 244 239 234 231 236 243
55 51 39 27 25 38 17 350 336 330 316 310 316 321 328 32 70 82 79 336 331 324 312 308 317 329 321 309 297 279 274 277 277 272 267 263 258 253 245 238 232 229 232
45 39 27 18 12 7 347 331 332 342 348 3 5 356 354 14 41 44 23 345 326 311 305 314 321 314 307 296 281 276 276 274 270 267 265 263 259 257 255 251 244 239 237
24 7 338 311 299 355 334 326 347 356 7 6 352 342 338 343 17 13 353 338 331 322 321 318 310 294 286 277 277 277 268 261 260 264 266 266 263 260 258 255 254 248 246
358 341 324 317 325 322 293 290 294 292 256 262 303 312 317 324 357 351 337 326 321 313 316 306 299 298 296 294 293 291 288 284 274 270 271 271 268 264 262 261 259 256 253
351 344 336 332 341 326 315 316 279 260 227 224 235 264 312 330 324 319 313 304 297 297 305 298 298 300 302 304 306 307 304 299 297 296 291 284 280 275 271 267 264 260 257
336 323 325 332 333 330 327 322 321 306 258 240 243 251 264 294 304 306 303 303 298 296 294 297 303 309 311 313 315 314 314 314 311 305 299 294 289 282 275 269 265 262 261
319 317 320 324 324 322 321 324 326 327 327 327 270 245 266 293 301 300 302 312 312 313 313 315 316 317 318 318 317 316 316 315 313 309 304 299 295 290 284 276 269 264 261
323 326 338 328 317 317 326 329 330 332 331 338 344 336 338 325 309 306 317 321 318 319 322 323 322 322 322 320 318 316 314 312 309 308 305 301 297 295 290 284 277 271 266
315 319 319 315 313 329 343 343 340 339 340 345 343 346 349 338 329 329 330 325 321 321 324 323 322 319 318 317 315 313 312 310 310 309 306 304 299 295 293 289 283 277 271
328 329 322 323 348 0 354 344 342 347 347 344 341 350 350 334 328 329 329 329 327 325 324 321 319 318 316 315 315 314 312 310 311 314 313 310 305 300 298 295 289 282 275
326 332 343 352 357 5 351 342 351 352 347 344 340 340 340 334 332 331 329 328 325 322 318 316 314 312 312 314 315 317 316 314 314 315 316 314 310 306 300 296 292 288 282
329 343 351 357 357 1 353 357 356 351 347 343 339 337 337 337 334 332 330 328 326 323 321 318 314 312 313 313 312 313 314 316 318 319 316 313 310 308 306 302 298 292 285
350 359 1 360 0 359 355 354 354 351 348 344 340 338 335 333 331 331 331 329 327 325 323 320 314 314 316 317 315 313 314 317 318 314 311 307 306 305 304 304 304 302 295
13 14 5 3 2 360 355 352 353 351 346 341 340 337 335 334 332 332 332 330 328 326 325 323 320 320 320 323 326 327 325 320 316 316 310 304 302 303 306 308 311 314 310
26 19 10 6 5 358 354 354 354 349 343 341 341 339 337 336 335 334 334 332 329 327 325 324 326 327 327 331 332 331 326 322 319 316 310 303 301 303 309 310 312 311 307
Height
1525 1528 1531 1533 1536 1538 1539 1541 1543 1544 1546 1547 1547 1548 1549 1550 1550 1551 1552 1554 1554 1555 1555 1556 1556 1556 1556 1557 1558 1558 1558 1558 1558 1557 1557 1558 1557 1556 1556 1555 1554 1552 1551
1523 1526 1529 1531 1533 1535 1536 1538 1539 1541 1542 1543 1544 1545 1546 1547 1548 1549 1550 1551 1552 1552 1552 1553 1553 1553 1553 1554 1554 1554 1554 1555 1554 1553 1553 1553 1552 1551 1551 1550 1549 1548 1547
1520 1523 1525 1528 1530 1532 1533 1535 1536 1537 1539 1540 1541 1542 1543 1544 1545 1546 1547 1548 1548 1549 1549 1549 1550 1550 1550 1550 1550 1549 1550 1550 1550 1549 1547 1548 1547 1547 1546 1544 1544 1543 1542
1518 1520 1522 1525 1527 1529 1530 1532 1533 1534 1535 1536 1537 1539 1540 1541 1542 1543 1543 1544 1544 1545 1545 1545 1545 1545 1545 1545 1545 1545 1545 1544 1544 1544 1542 1542 1541 1541 1541 1539 1538 1537 1537
1514 1517 1518 1521 1523 1525 1527 1528 1529 1530 1532 1532 1534 1535 1536 1537 1538 1538 1539 1539 1539 1540 1540 1540 1540 1540 1540 1540 1540 1539 1539 1539 1538 1537 1536 1536 1535 1535 1535 1534 1533 1532 1531
1511 1513 1515 1517 1519 1521 1523 1525 1525 1526 1528 1529 1530 1531 1532 1533 1534 1535 1535 1535 1535 1535 1535 1535 1535 1534 1534 1534 1533 1533 1534 1533 1532 1531 1530 1529 1528 1529 1529 1528 1527 1526 1525
1509 1511 1513 1515 1516 1518 1520 1521 1522 1522 1524 1525 1526 1527 1528 1529 1529 1530 1530 1530 1529 1529 1529 1529 1528 1528 1528 1527 1525 1525 1525 1525 1524 1524 1522 1521 1521 1522 1522 1521 1520 1519 1517
1506 1508 1510 1511 1513 1514 1516 1517 1518 1519 1520 1521 1521 1522 1523 1523 1523 1523 1523 1523 1522 1522 1522 1522 1521 1520 1520 1520 1518 1517 1515 1515 1514 1514 1512 1511 1512 1513 1513 1513 1512 1510 1509
1504 1506 1507 1510 1510 1512 1513 1514 1515 1515 1516 1517 1517 1518 1518 1518 1517 1517 1517 1516 1515 1515 1515 1514 1513 1512 1512 1511 1509 1507 1506 1505 1505 1504 1502 1501 1502 1502 1503 1503 1502 1501 1498
1505 1507 1508 1509 1510 1510 1511 1512 1512 1512 1513 1514 1514 1514 1513 1513 1512 1512 1511 1510 1509 1509 1508 1507 1506 1505 1504 1502 1500 1498 1496 1495 1495 1494 1493 1491 1491 1491 1492 1492 1491 1490 1488
1507 1508 1510 1510 1510 1510 1510 1510 1511 1510 1510 1510 1511 1511 1510 1509 1508 1508 1506 1505 1504 1503 1501 1500 1499 1498 1495 1494 1492 1489 1487 1486 1484 1482 1481 1480 1479 1479 1478 1479 1478 1478 1477
1509 1509 1510 1510 1510 1510 1510 1510 1510 1509 1509 1509 1509 1509 1508 1507 1505 1504 1502 1501 1499 1497 1495 1494 1492 1490 1487 1485 1482 1480 1479 1476 1473 1471 1469 1467 1467 1467 1466 1467 1466 1466 1465
1510 1510 1510 1510 1510 1511 1511 1510 1510 1509 1509 1508 1508 1507 1506 1505 1503 1501 1499 1497 1495 1493 1490 1487 1484 1482 1479 1475 1473 1471 1469 1466 1463 1460 1458 1456 1456 1456 1456 1456 1455 1455 1454
1512 1512 1512 1512 1512 1511 1511 1510 1509 1508 1507 1506 1505 1505 1503 1502 1500 1497 1495 1492 1490 1487 1483 1479 1476 1473 1470 1467 1464 1461 1459 1457 1454 1451 1449 1447 1446 1445 1445 1444 1444 1443 1442
1514 1514 1513 1513 1512 1511 1510 1509 1508 1507 1506 1505 1503 1502 1500 1498 1496 1494 1491 1487 1484 1481 1476 1472 1468 1465 1462 1460 1457 1455 1452 1450 1447 1444 1441 1439 1437 1435 1434 1434 1433 1433 1432
1515 1514 1514 1513 1511 1510 1509 1508 1506 1505 1503 1502 1500 1498 1496 1494 1491 1488 1486 1482 1479 1475 1471 1466 1463 1460 1457 1454 1451 1448 1445 1443 1440 1437 1433 1430 1428 1426 1424 1423 1423 1422 1421
1515 1514 1513 1512 1511 1509 1508 1506 1504 1503 1501 1498 1496 1494 1492 1489 1486 1483 1480 1477 1474 1470 1466 1462 1459 1456 1453 1449 1446 1442 1439 1435 1432 1429 1425 1422 1420 1417 1415 1413 1412 1411 1410
1515 1514 1512 1511 1509 1507 1506 1504 1502 1500 1498 1495 1493 1490 1487 1484 1481 1478 1475 1472 1468 1466 1463 1459 1455 1452 1448 1444 1441 1437 1432 1428 1425 1421 1418 1414 1412 1409 1406 1404 1403 1402 1401
1514 1512 1510 1509 1507 1506 1503 1501 1499 1497 1495 1492 1489 1487 1484 1480 1477 1475 1471 1468 1464 1461 1458 1455 1451 1447 1443 1439 1435 1431 1426 1422 1418 1414 1410 1406 1403 1401 1398 1395 1394 1393 1392
1512 1510 1508 1506 1505 1503 1500 1498 1496 1494 1492 1489 1486 1483 1479 1476 1473 1470 1467 1464 1461 1457 1453 1450 1446 1442 1438 1433 1429 1424 1420 1415 1411 1407 1403 1399 1396 1393 1390 1388 1386 1384 1384
1510 1508 1506 1504 1502 1500 1498 1496 1494 1491 1489 1486 1483 1480 1477 1473 1470 1467 1464 1460 1456 1453 1449 1445 1440 1436 1432 1428 1423 1419 1414 1409 1405 1401 1396 1392 1389 1386 1383 1381 1379 1377 1376
1507 1506 1504 1502 1499 1497 1495 1493 1491 1488 1486 1483 1480 1477 1474 1471 1467 1463 1460 1456 1452 1448 1444 1440 1435 1431 1427 1423 1418 1414 1409 1404 1400 1395 1391 1387 1383 1380 1377 1375 1373 1372 1371
1505 1503 1501 1499 1497 1495 1493 1491 1488 1486 1483 1481 1478 1474 1471 1467 1464 1460 1456 1452 1448 1443 1439 1435 1431 1426 1422 1418 1414 1409 1404 1399 1395 1391 1387 1382 1379 1376 1373 1370 1368 1367 1366
1503 1501 1499 1497 1495 1493 1491 1489 1486 1484 1481 1478 1475 1472 1468 1464 1461 1457 1453 1448 1443 1439 1435 1430 1425 1421 1417 1413 1408 1404 1399 1395 1391 1387 1383 1379 1375 1372 1369 1367 1365 1363 1362
1501 1499 1497 1495 1494 1492 1490 1487 1485 1482 1480 1477 1473 1470 1466 1462 1458 1454 1450 1445 1440 1435 1430 1425 1421 1416 1412 1407 1403 1399 1394 1390 1386 1382 1378 1375 1371 1369 1366 1364 1362 1360 1358
1499 1497 1496 1494 1493 1490 1488 1486 1484 1481 1478 1475 1472 1468 1464 1460 1456 1452 1447 1442 1436 1431 1426 1421 1416 1412 1407 1402 1398 1393 1389 1385 1381 1377 1374 1371 1368 1365 1363 1360 1358 1356 1355